[[{"header":{"parameterUnit":"m.s-1","parameterCategory":1,"la1":30.2991,"la2":30.254,"lo1":-89.0895,"lo2":-89.0444,"dy":0.0017,"dx":0.0017,"nx":28,"ny":28,"refTime":"2026-01-01T09:00:00:Z","depth":0,"parameterNumber":2,"parameterNumberName":"U-component_of_WINDS"},"data":[0,0,0,0,0,0,0,0,0,0,0,0,0,0,0,0,0,0,0,0,0,0,0,0,0,0,0,0,0,0,0,0,0,0,0,0,0,0,0,0,0,0,0,0,0,0,0,0,0,0,0,0,0,0,0,0,0,0,0.745,0.745,0,0.7456,0.7456,0.7456,0.7409,0.7407,0.7406,0.7405,0.7415,0.7417,0.7418,0,0,0,0,0,0,0,0,0,0,0,0,0,0.7401,0.7402,0.745,0.745,0.745,0.7456,0.7456,0.7456,0.7409,0.7407,0.7405,0.7404,0.7415,0.7417,0.7419,0,0,0,0,0,0,0,0,0,0,0,0,0,0.7416,0.7402,0.745,0.7427,0.7425,0.7456,0.7456,0.7456,0.7409,0.7407,0.7405,0.7403,0.7414,0.7417,0.7419,0.7473,0,0,0.7426,0.7427,0,0,0,0,0,0,0,0,0.7415,0.7418,0.743,0.7428,0.7426,0.7429,0.7443,0.7462,0.741,0.7415,0.7405,0.7402,0.7422,0.7424,0.7429,0.7474,0.7474,0.7426,0.7428,0.7429,0.7429,0,0,0,0,0,0,0,0.7414,0.7417,0.7452,0.743,0.7428,0.7417,0.7417,0.7446,0.743,0.7415,0.7411,0.7412,0.7421,0.7427,0.7429,0.7475,0.7426,0.7428,0.743,0.743,0.7565,0.7568,0,0,0,0,0,0,0.7416,0.7417,0.7452,0.7452,0.7415,0.742,0.742,0.743,0.7429,0.7427,0.7414,0.741,0.7424,0.7427,0.7429,0.7494,0.7429,0.7431,0.7432,0.7563,0.7566,0.7568,0,0,0,0,0,0,0.7415,0.7419,0.7452,0.7434,0.7437,0.7423,0.7435,0.7432,0.7438,0.7429,0.7426,0.7423,0.7423,0.7426,0.7463,0.7494,0.7432,0.7434,0.7561,0.7564,0.7567,0.7624,0,0,0,0,0,0,0.7413,0.7419,0.7439,0.7434,0.7438,0.7484,0.7437,0.7433,0.7442,0.7437,0.7437,0.7435,0.7421,0.746,0.7465,0.7496,0.7436,0.7558,0.7562,0.7566,0.7619,0.7628,0.7636,0,0,0,0,0,0.7412,0.7455,0.744,0.7445,0.7462,0.7486,0.7488,0.747,0.7444,0.7465,0.7459,0.7435,0.7489,0.7464,0.7469,0.7502,0.7556,0.7561,0.7566,0.7615,0.7627,0.7636,0,0,0,0,0,0,0.7465,0.7454,0.7437,0.748,0.7484,0.7478,0.7503,0.7483,0.7495,0.749,0.7468,0.7469,0.7509,0.7509,0.7481,0.7555,0.7518,0.7525,0.7554,0.7565,0.7573,0.7573,0.7438,0,0,0,0,0,0.7482,0.7501,0.749,0.7529,0.7532,0.7517,0.7527,0.7512,0.7516,0.7518,0.7515,0.7521,0.7539,0.7551,0.7568,0.7618,0.7618,0.7643,0.7652,0.7659,0.7665,0.7693,0.7704,0.7585,0.7584,0.7584,0,0,0.7517,0.7513,0.7526,0.754,0.7541,0.7563,0.7519,0.7543,0.7559,0.7522,0.7556,0.7554,0.7559,0.7603,0.7623,0.7604,0.7698,0.7665,0.7671,0.7674,0.7699,0.7711,0.7721,0.7588,0.7587,0.7587,0,0,0.7591,0.759,0.7622,0.7624,0.7626,0.7616,0.7624,0.762,0.7617,0.7651,0.7623,0.7643,0.7674,0.7679,0.7686,0.7762,0.7742,0.7768,0.7815,0.7842,0.7852,0.786,0.7889,0.7899,0.7774,0.7774,0.7774,0,0.7635,0.7665,0.7642,0.7668,0.7676,0.7641,0.7675,0.7678,0.7686,0.7693,0.7671,0.771,0.7711,0.7756,0.7775,0.7781,0.7791,0.7769,0.7852,0.786,0.7867,0.7894,0.7905,0.7777,0.7777,0.7777,0.7776,0,0.7719,0.774,0.7766,0.7773,0.7783,0.7813,0.7797,0.781,0.7794,0.7787,0.7822,0.7822,0.7838,0.7847,0.7832,0.7891,0.7879,0.7855,0.7818,0.7882,0.7908,0.7918,0.7782,0.7781,0.778,0.7779,0,0,0.7828,0.7822,0.7832,0.7835,0.7835,0.7851,0.788,0.7894,0.7907,0.7913,0.7938,0.7965,0.7943,0.795,0.7936,0.796,0.8022,0.7933,0.7933,0.7951,0.8087,0.8107,0.8119,0.8007,0.8009,0.8011,0.8088,0,0.7902,0.7949,0.793,0.798,0.8,0.7967,0.7993,0.7996,0.799,0.8007,0.8,0.802,0.7988,0.7993,0.8015,0.801,0.8049,0.8004,0.8032,0.8033,0.8033,0.8132,0.8152,0.8225,0.8097,0.8099,0.81,0,0.7995,0.8004,0.8056,0.8052,0.806,0.8082,0.8094,0.811,0.8114,0.8107,0.8116,0.8096,0.8126,0.8088,0.8129,0.8098,0.8109,0.8108,0.811,0.8114,0.8072,0.8139,0.8247,0.8259,0.8115,0.8114,0.8113,0,0.8071,0.8096,0.8131,0.8134,0.813,0.8148,0.8147,0.8148,0.8158,0.8169,0.8175,0.8189,0.8198,0.821,0.8195,0.8169,0.8239,0.82,0.8237,0.8237,0.8254,0.8254,0.8367,0.8258,0.8258,0.8258,0.8258,0,0.8156,0.819,0.8165,0.8186,0.8223,0.8201,0.8238,0.8234,0.8236,0.8257,0.8229,0.825,0.8228,0.8248,0.8237,0.8273,0.8277,0.8274,0.8271,0.8277,0.8278,0.8285,0.828,0.8261,0.826,0.826,0.8259,0,0.8249,0.8233,0.8269,0.8262,0.8261,0.8289,0.8283,0.8304,0.8295,0.8322,0.8327,0.8314,0.8335,0.8321,0.8343,0.8335,0.8384,0.8373,0.8383,0.838,0.8418,0.8416,0.8541,0.8557,0.8437,0.8438,0.8439,0,0.8305,0.8329,0.8325,0.8337,0.8338,0.8356,0.8366,0.8345,0.8357,0.8362,0.8382,0.8401,0.8414,0.845,0.8444,0.846,0.8451,0.8493,0.8453,0.8459,0.8453,0.8453,0.8456,0.8502,0.8504,0.8505,0.8506,0,0.8407,0.8398,0.8412,0.8424,0.8436,0.8445,0.8451,0.8463,0.8441,0.8456,0.8476,0.8487,0.8508,0.8528,0.8541,0.8542,0.8522,0.8518,0.8528,0.8536,0.8541,0.854,0.8407,0.8516,0.8515,0.8514,0.8514,0.8513,0.8483,0.8504,0.8504,0.8522,0.8524,0.8531,0.855,0.8543,0.8559,0.8574,0.8561,0.8586,0.859,0.8606,0.8609,0.863,0.8612,0.8626,0.863,0.8634,0.864,0.8536,0.8632,0.8632,0.8631,0.8631,0.8631,0,0.8585,0.8583,0.8599,0.8609,0.8623,0.8599,0.8606,0.8619,0.8641,0.8646,0.8659,0.8684,0.8702,0.8697,0.8714,0.8731,0.8722,0.8736,0.8736,0.8737,0.8654,0.8644,0.8743,0.8743,0.8743,0.8743,0.8743,0.8743,0.864,0.8674,0.8665,0.8701,0.8699,0.8722,0.8728,0.8735,0.8738,0.8766,0.8781,0.8776,0.8778,0.8794,0.8811,0.8809,0.8817,0.8835,0.883,0.8753,0.8742,0.8732,0.8723,0.8837,0.8837,0.8912,0.8912,0.8913]},{"header":{"parameterUnit":"m.s-1","parameterCategory":1,"la1":30.2991,"la2":30.254,"lo1":-89.0895,"lo2":-89.0444,"dy":0.0017,"dx":0.0017,"nx":28,"ny":28,"refTime":"2026-01-01T09:00:00:Z","depth":0,"parameterNumber":3,"parameterNumberName":"V-component_of_WINDS"},"data":[0,0,0,0,0,0,0,0,0,0,0,0,0,0,0,0,0,0,0,0,0,0,0,0,0,0,0,0,0,0,0,0,0,0,0,0,0,0,0,0,0,0,0,0,0,0,0,0,0,0,0,0,0,0,0,0,0,0,5.9265,5.9266,0,5.9336,5.9337,5.9338,5.933,5.9329,5.9328,5.9327,5.9397,5.9399,5.9402,0,0,0,0,0,0,0,0,0,0,0,0,0,5.9121,5.9124,5.9265,5.9266,5.9267,5.9336,5.9337,5.9338,5.9331,5.9329,5.9328,5.9327,5.9396,5.9399,5.9402,0,0,0,0,0,0,0,0,0,0,0,0,0,5.9187,5.9125,5.9265,5.9272,5.9273,5.9336,5.9337,5.9338,5.9331,5.9329,5.9328,5.9326,5.9394,5.9399,5.9403,5.9463,0,0,5.9416,5.9418,0,0,0,0,0,0,0,0,5.9183,5.9192,5.927,5.9272,5.9273,5.9323,5.9312,5.938,5.9331,5.9309,5.9327,5.9325,5.9373,5.9379,5.9396,5.9466,5.9469,5.9416,5.9419,5.9421,5.9422,0,0,0,0,0,0,0,5.9179,5.9189,5.9293,5.9271,5.9273,5.927,5.9278,5.9325,5.9349,5.9311,5.931,5.9319,5.9374,5.9392,5.9397,5.947,5.9416,5.942,5.9423,5.9424,5.9594,5.9596,0,0,0,0,0,0,5.9173,5.9185,5.9291,5.9295,5.9223,5.9274,5.9283,5.9309,5.9349,5.9353,5.932,5.9318,5.9385,5.9392,5.94,5.9474,5.9421,5.9425,5.9427,5.9592,5.9594,5.9596,0,0,0,0,0,0,5.917,5.9183,5.9288,5.924,5.9254,5.9279,5.9308,5.9311,5.9329,5.9356,5.936,5.9335,5.9384,5.9394,5.9448,5.9476,5.9427,5.9431,5.959,5.9593,5.9595,5.9622,0,0,0,0,0,0,5.9166,5.9181,5.9205,5.9241,5.9256,5.9336,5.9309,5.9313,5.9337,5.9335,5.9371,5.9375,5.9384,5.9441,5.9452,5.9481,5.9434,5.9587,5.9591,5.9594,5.9619,5.9625,5.9631,0,0,0,0,0,5.9161,5.9209,5.9206,5.9219,5.9286,5.9337,5.9346,5.9356,5.9339,5.9363,5.938,5.9374,5.9471,5.9447,5.9459,5.949,5.9585,5.959,5.9594,5.9616,5.9624,5.9631,0,0,0,0,0,0,5.9174,5.9213,5.9211,5.9272,5.9302,5.9336,5.9366,5.9364,5.9398,5.9395,5.9405,5.9413,5.9468,5.9484,5.9456,5.955,5.9526,5.9533,5.9538,5.9546,5.9552,5.9548,5.9438,0,0,0,0,0,5.9184,5.9223,5.9255,5.9306,5.9321,5.9341,5.9363,5.9369,5.9399,5.9411,5.9433,5.9462,5.9499,5.9523,5.9559,5.962,5.9629,5.9647,5.9654,5.9659,5.9665,5.9701,5.971,5.961,5.961,5.961,0,0,5.9205,5.9232,5.9255,5.9309,5.9333,5.9372,5.9351,5.9394,5.9424,5.9417,5.9471,5.9487,5.952,5.9578,5.9605,5.9594,5.9694,5.9664,5.9668,5.9672,5.9706,5.9715,5.9724,5.9613,5.9613,5.9612,0,0,5.9265,5.9288,5.9334,5.9358,5.9394,5.9408,5.9419,5.9454,5.9465,5.9518,5.9515,5.955,5.9613,5.9637,5.9658,5.9727,5.9723,5.9738,5.9772,5.9806,5.9814,5.9821,5.9847,5.9857,5.9744,5.9744,5.9744,0,5.9286,5.9347,5.9357,5.9402,5.9426,5.9423,5.9469,5.9492,5.9537,5.9554,5.954,5.9621,5.9642,5.9708,5.9725,5.9741,5.9754,5.9735,5.9812,5.9819,5.9826,5.9851,5.9861,5.9746,5.9746,5.9746,5.9745,0,5.9373,5.9415,5.9447,5.9494,5.9521,5.9566,5.9582,5.9609,5.9611,5.9626,5.9681,5.9707,5.9749,5.9764,5.9766,5.983,5.9822,5.981,5.9786,5.9837,5.9861,5.9871,5.9749,5.9748,5.9747,5.9747,0,0,5.9443,5.9495,5.9507,5.9529,5.9568,5.9601,5.9645,5.9688,5.9711,5.9742,5.978,5.9834,5.9824,5.9847,5.9852,5.9882,5.9938,5.9867,5.9868,5.9881,6.0011,6.0021,6.0032,5.9935,5.9936,5.9938,6.0009,0,5.9508,5.9589,5.96,5.9671,5.9711,5.9709,5.9748,5.9776,5.9791,5.9826,5.9841,5.9881,5.9863,5.9878,5.9907,5.9925,5.9964,5.992,5.9971,5.9973,5.9965,6.0045,6.0055,6.0122,6.0018,6.002,6.0021,0,5.9595,5.9631,5.9707,5.9743,5.976,5.9795,5.9835,5.9868,5.99,5.9909,5.9936,5.9937,5.9983,5.9956,6.002,5.9989,6.001,6.0022,6.0025,6.0032,6.0001,6.0055,6.0143,6.0153,6.0036,6.0034,6.0033,0,5.9642,5.9708,5.9763,5.9781,5.9824,5.9849,5.9867,5.9898,5.9923,5.9957,5.9974,6.0012,6.0034,6.0063,6.0075,6.0054,6.0139,6.0112,6.0148,6.0148,6.0168,6.0167,6.0262,6.0178,6.0178,6.0178,6.0178,0,5.9715,5.9762,5.9785,5.9819,5.9871,5.9882,5.9934,5.9951,5.9979,6.0015,6.0014,6.0049,6.0062,6.0098,6.0107,6.016,6.0169,6.0177,6.018,6.0179,6.0178,6.0194,6.0191,6.018,6.018,6.0179,6.0179,0,5.9777,5.9794,5.9854,5.9889,5.9899,5.9937,5.9967,5.9999,6.0013,6.006,6.0072,6.0094,6.0137,6.0151,6.0202,6.0208,6.027,6.0267,6.026,6.0261,6.0297,6.0294,6.0407,6.0423,6.0327,6.0328,6.0329,0,5.9823,5.986,5.99,5.9925,5.9945,5.9985,6.0011,6.0023,6.005,6.009,6.0118,6.0161,6.0196,6.0265,6.0285,6.0324,6.0324,6.0361,6.033,6.0328,6.0327,6.0325,6.033,6.0367,6.0368,6.0369,6.0369,0,5.9904,5.9911,5.995,5.9991,6.0023,6.0056,6.0087,6.0108,6.0124,6.0154,6.0199,6.0226,6.028,6.0323,6.0363,6.0381,6.0379,6.0379,6.039,6.039,6.0385,6.0391,6.0278,6.0377,6.0376,6.0375,6.0375,6.0375,5.9962,5.9994,6.0029,6.0071,6.0097,6.0127,6.016,6.0178,6.0216,6.0262,6.0265,6.0314,6.0345,6.04,6.042,6.0458,6.0448,6.0463,6.0467,6.0471,6.0475,6.0378,6.0465,6.0465,6.0465,6.0465,6.0465,0,6.0045,6.0067,6.0106,6.0151,6.0185,6.018,6.0215,6.0243,6.0286,6.0316,6.0351,6.0403,6.0445,6.0468,6.051,6.0536,6.0536,6.0547,6.0546,6.0551,6.0481,6.0469,6.0546,6.0546,6.0546,6.0546,6.0546,6.0546,6.0092,6.0148,6.0159,6.0228,6.0249,6.0298,6.0319,6.0346,6.0371,6.0429,6.0464,6.0479,6.0507,6.0551,6.0589,6.0595,6.0611,6.0624,6.0629,6.0564,6.0555,6.0547,6.0536,6.0626,6.0627,6.0695,6.0696,6.0697]}]]